Theta_e
302 303 306 308 310 310 309 308 307 307 305 304 304 305 304 304 304 304 305 305 305 306 305 306 306 307 307 308 308 308 308 308 309 309 309 309 309 308 308 308 307 307
301 301 303 304 306 308 308 308 307 306 306 304 303 301 301 303 302 302 303 304 304 304 305 305 305 306 306 306 306 306 306 307 307 307 307 307 306 307 307 306 305 305
298 299 300 301 304 305 306 306 306 305 304 302 301 301 301 302 301 301 301 302 302 302 303 303 304 304 305 305 305 305 305 305 305 305 305 305 305 305 305 304 304 304
296 296 297 298 299 300 301 301 302 301 300 300 300 301 301 301 301 301 301 300 301 301 302 302 303 303 303 303 304 303 303 303 303 303 302 302 303 303 302 302 302 302
293 295 295 296 296 297 299 300 300 300 300 300 299 300 300 300 301 300 300 300 300 300 300 300 301 301 302 302 302 302 301 301 301 301 300 300 300 300 300 300 300 299
292 292 293 294 295 296 297 298 299 299 299 298 299 299 300 300 300 300 300 300 300 299 299 299 300 299 300 300 300 300 300 299 299 299 298 297 296 297 298 298 297 296
289 290 291 293 293 294 296 297 297 298 298 298 298 298 299 299 299 298 298 298 298 298 297 297 297 297 298 299 298 298 298 298 297 297 296 295 295 294 295 295 294 293
287 287 288 290 291 292 294 295 296 297 297 297 297 297 298 298 298 297 297 297 296 296 296 296 296 296 296 296 296 296 295 296 295 295 294 294 293 293 293 293 292 291
285 286 286 287 289 290 292 294 295 296 296 296 296 296 296 296 296 295 295 295 295 295 294 294 295 295 295 295 295 294 294 293 294 293 293 292 292 291 291 291 290 290
283 284 285 285 286 288 290 292 293 294 295 295 295 295 294 295 295 294 294 294 293 293 293 293 293 293 294 294 294 293 293 292 292 292 291 291 291 290 290 290 289 289
281 282 283 284 285 286 288 290 292 292 293 293 293 293 293 293 293 294 293 293 292 292 292 292 292 293 292 292 292 292 292 291 291 290 290 290 289 289 289 288 288 287
280 281 281 282 283 285 286 288 290 291 292 292 292 292 292 292 292 292 292 292 292 292 292 292 292 292 292 292 291 291 291 290 290 289 289 288 288 287 287 287 286 286
279 280 280 281 281 282 284 285 287 290 291 290 291 291 291 291 290 290 290 291 291 291 291 291 292 292 291 291 291 290 290 289 288 288 287 287 286 286 286 286 286 285
279 279 280 281 281 281 282 283 285 286 288 289 289 289 289 289 288 288 288 289 289 289 290 290 290 290 290 290 290 289 289 288 288 287 286 286 286 286 286 285 285 285
278 279 280 281 281 282 282 283 284 285 286 287 288 288 288 287 287 287 287 287 288 288 288 289 289 289 289 289 288 288 288 287 287 286 285 285 284 284 284 284 284 284
277 278 279 280 282 283 283 283 283 284 285 286 285 285 285 286 286 286 286 287 287 287 287 288 288 288 288 289 289 288 287 287 286 285 285 284 283 282 282 282 282 282
275 277 278 279 281 283 283 284 284 284 284 284 284 284 284 284 285 285 285 286 286 286 286 287 287 287 289 289 289 288 287 286 285 285 284 283 282 281 280 280 279 280
273 275 277 279 281 282 283 283 284 284 283 283 283 282 282 283 283 284 284 285 285 286 286 286 287 288 289 289 288 288 286 285 284 283 283 282 281 279 279 278 278 279
271 272 275 278 280 281 282 283 283 283 282 282 281 282 282 282 282 282 283 284 284 285 285 286 286 288 288 288 288 287 287 285 283 282 282 281 280 279 278 278 278 279
270 271 272 276 279 280 281 282 282 282 282 281 281 281 281 281 281 281 282 282 283 284 284 285 286 287 288 287 287 286 286 284 282 281 281 280 280 279 279 278 279 279
268 269 270 273 277 279 280 281 281 281 281 280 280 280 280 280 280 280 281 281 282 283 284 284 285 287 287 287 286 286 285 283 280 280 279 279 278 278 278 278 279 279
267 268 269 271 274 278 279 280 280 280 279 280 279 279 279 279 279 280 280 281 282 283 283 283 284 286 286 286 285 285 283 280 279 279 278 277 276 276 277 278 278 279
266 268 268 270 272 275 278 279 279 279 279 280 278 279 278 278 278 278 279 280 280 281 282 282 283 284 285 284 284 283 281 279 278 277 276 275 275 276 276 277 277 278
266 268 268 269 270 272 275 278 279 279 279 279 278 277 276 277 277 278 279 279 279 280 280 280 281 282 283 283 282 282 280 278 278 277 276 276 277 278 278 278 279 279
267 268 268 268 269 271 274 276 278 278 279 279 278 277 276 276 277 277 277 278 278 278 279 279 279 280 282 282 282 281 279 278 278 277 276 277 277 277 277 277 278 279
267 268 268 268 269 271 273 275 277 278 278 277 277 276 275 276 276 276 276 276 277 278 278 278 278 278 280 281 281 281 280 277 277 277 276 276 276 275 274 274 275 277
Wind_Speed
5 3 4 4 5 5 5 5 5 6 6 5 5 4 4 1 1 3 5 4 4 5 4 4 3 4 5 6 4 4 3 4 5 5 6 6 6 7 7 6 5 4
7 5 5 5 5 4 4 5 5 6 6 5 4 2 2 3 2 2 3 4 3 4 4 5 5 5 5 4 4 4 3 3 4 3 6 6 5 5 6 6 6 5
7 6 5 4 5 4 4 4 4 4 3 2 2 3 2 2 3 3 3 3 4 4 4 4 4 3 4 6 6 4 3 3 3 3 5 6 5 6 5 6 5 6
8 6 5 4 3 3 2 2 2 1 2 3 4 3 3 3 3 3 4 4 4 5 4 4 4 4 4 4 6 5 5 4 3 4 6 5 4 6 6 6 6 6
7 7 6 5 3 1 0 2 2 2 3 2 2 4 5 5 5 4 4 5 5 5 6 6 5 4 4 4 5 6 5 5 4 5 5 6 4 6 5 6 7 7
8 6 5 5 4 2 2 2 2 2 2 4 5 3 4 4 5 6 4 5 6 6 6 6 6 5 5 5 5 5 5 5 4 4 6 6 5 4 5 6 8 8
8 7 6 5 4 3 1 1 1 0 1 0 1 3 5 5 4 4 6 5 6 7 7 6 6 6 5 6 6 6 5 5 5 5 6 4 5 6 5 6 8 8
9 7 5 4 3 2 1 1 0 0 1 2 2 1 1 5 6 5 4 6 7 6 7 7 7 7 6 7 7 8 7 5 5 6 6 5 5 7 6 6 7 9
8 7 6 4 2 2 1 1 1 1 0 2 3 3 3 2 4 5 6 6 7 7 7 7 7 7 6 7 8 8 8 7 6 6 6 6 6 6 6 6 8 8
9 8 7 5 2 2 1 1 1 2 1 1 1 2 4 4 4 5 5 7 8 8 8 8 8 8 8 7 8 9 9 8 7 8 7 7 7 6 6 6 7 8
10 9 7 6 4 2 0 1 1 2 2 2 3 3 3 4 4 5 7 6 7 8 8 8 8 9 9 9 8 8 9 9 8 8 8 8 8 7 6 7 7 8
10 9 8 7 5 3 1 0 1 2 2 2 3 4 4 3 4 4 4 7 7 8 8 8 7 8 9 10 10 10 10 9 9 9 9 9 8 8 6 6 7 8
11 9 7 6 6 5 3 1 1 1 2 3 3 4 5 5 5 5 4 6 6 7 8 9 8 8 8 9 10 10 11 11 10 10 10 9 8 7 7 7 7 7
11 9 7 6 5 4 3 2 2 2 2 2 3 4 4 5 5 6 5 5 6 7 7 7 8 8 9 9 9 10 10 10 10 11 11 10 9 8 7 8 8 7
11 9 7 6 5 3 3 3 3 3 3 3 3 4 4 5 5 6 8 7 6 7 7 7 7 7 7 9 11 10 10 10 10 10 11 10 10 9 9 8 8 8
13 10 9 6 5 4 3 3 3 3 4 4 5 4 4 5 5 6 6 8 8 7 7 6 6 5 9 13 11 10 10 9 9 10 10 11 10 10 9 9 8 8
14 11 9 7 6 4 3 3 3 4 5 5 5 5 5 4 5 6 6 6 7 8 8 6 6 7 14 14 15 13 10 10 10 10 10 10 10 10 10 9 7 7
14 14 10 8 6 5 3 2 3 4 5 5 5 6 5 4 5 5 6 6 6 7 8 7 7 12 16 16 16 15 12 10 9 9 9 9 9 9 8 8 8 7
14 15 12 8 7 5 3 3 4 5 5 5 6 4 5 6 5 6 6 5 6 8 9 8 8 14 16 17 17 16 16 11 8 9 9 9 9 9 8 8 7 8
14 14 13 11 7 5 3 3 4 5 5 5 5 5 6 6 6 7 6 6 6 7 8 8 9 13 16 17 16 17 15 12 9 10 10 9 9 8 8 9 9 9
13 13 13 13 10 5 3 3 4 5 6 4 4 4 6 5 5 7 6 6 7 7 8 8 8 16 16 17 17 17 17 12 10 11 10 10 9 8 7 8 8 7
13 13 13 12 12 7 3 2 4 5 6 6 5 5 6 6 7 6 7 7 7 8 8 9 9 16 16 17 17 17 16 9 10 10 10 10 9 8 7 7 7 7
12 12 12 12 12 9 3 1 4 6 6 5 5 5 5 6 6 6 5 6 8 8 9 9 9 12 15 16 16 16 11 9 9 10 10 10 9 8 7 8 8 9
13 11 11 11 11 10 7 1 2 4 5 4 5 6 6 5 4 6 7 7 8 9 7 10 10 12 15 14 14 13 9 9 8 10 10 9 9 9 8 9 11 14
12 11 10 9 10 9 8 3 2 4 5 5 5 6 6 5 6 6 7 7 7 9 11 10 9 11 16 15 15 12 8 6 8 9 10 9 9 9 7 7 8 11
11 11 10 9 9 10 8 5 1 4 6 7 6 5 6 7 6 7 8 8 7 8 9 10 11 9 11 16 15 13 10 6 5 9 9 10 9 7 7 7 7 8
Wind_Direction
290 281 269 259 246 237 239 227 225 219 224 220 221 220 210 177 101 178 164 171 164 141 132 118 119 129 131 131 130 130 171 162 134 136 141 138 138 140 138 132 117 118
313 307 285 278 276 263 247 231 225 226 220 209 196 184 125 125 124 142 167 158 142 135 127 128 132 137 129 124 121 135 147 140 130 118 129 127 125 122 123 120 115 112
337 329 315 288 271 265 250 238 222 213 214 192 145 133 118 115 126 120 132 138 127 115 111 115 108 99 117 126 127 125 123 115 110 109 113 122 122 119 114 113 106 109
331 329 321 311 295 266 271 235 232 169 145 170 184 157 138 128 111 115 117 114 116 107 96 93 102 97 97 107 115 111 106 96 99 112 106 88 99 112 112 109 108 97
321 324 325 322 323 315 207 226 224 204 190 191 125 143 146 148 141 134 134 121 113 104 97 91 79 89 98 93 99 104 101 107 105 112 111 107 98 110 112 115 112 101
326 326 325 325 320 322 298 262 236 198 189 174 179 159 147 145 147 145 149 140 131 123 114 110 108 99 98 97 93 91 98 99 87 100 110 114 106 96 111 110 109 101
321 328 325 328 333 338 350 358 2 351 150 84 85 170 154 145 145 145 145 136 129 127 125 120 113 104 99 102 95 91 81 90 92 96 104 98 103 96 91 100 102 100
320 319 324 336 345 349 13 33 41 13 60 110 143 82 123 154 141 135 129 128 124 118 117 116 116 113 113 111 111 105 97 87 88 94 99 99 98 100 96 94 100 101
319 330 328 342 359 354 356 22 39 54 64 150 146 129 96 97 127 130 134 127 117 117 115 113 113 111 110 115 117 117 112 103 101 103 102 102 97 95 98 101 97 95
330 330 336 339 357 349 12 6 39 46 32 70 79 99 118 117 119 118 120 125 123 119 119 119 116 114 111 108 112 114 110 107 106 102 98 94 94 95 95 95 100 97
330 336 338 339 341 350 16 28 55 68 64 82 88 92 95 111 111 125 125 123 122 125 124 121 122 122 117 113 111 111 110 108 105 100 96 93 90 86 79 84 77 86
329 335 337 332 331 342 350 16 49 89 97 85 106 115 108 98 107 107 121 126 126 123 118 117 117 118 119 120 118 113 108 104 102 100 96 93 90 86 79 77 79 83
328 327 326 326 330 329 343 16 46 69 98 116 116 123 121 119 109 100 84 109 114 118 121 123 121 119 119 120 119 116 114 112 109 103 99 94 88 82 81 76 75 79
327 319 323 326 328 339 356 8 30 47 62 77 97 108 110 109 113 113 103 96 102 107 110 114 119 122 122 120 115 116 115 114 115 113 109 103 96 86 80 77 75 76
325 322 319 332 339 352 11 18 32 45 52 62 69 75 81 93 102 109 112 107 99 102 107 109 118 125 131 129 123 116 114 116 116 115 115 111 103 93 85 83 84 79
327 323 325 326 347 354 1 23 44 56 67 71 67 71 81 92 102 103 107 112 111 106 103 107 110 111 115 115 117 122 121 118 116 116 115 113 110 106 96 90 86 83
331 327 324 329 332 348 2 35 58 69 81 82 80 79 80 77 93 101 101 106 109 113 111 108 110 112 110 107 109 108 116 122 123 120 117 114 110 111 110 103 85 80
335 327 328 326 334 342 354 25 66 78 83 87 88 87 77 78 85 88 92 98 103 105 105 108 109 111 108 109 109 110 111 116 117 117 117 112 111 105 103 102 101 96
334 332 326 328 329 330 347 36 75 82 83 87 87 81 83 84 87 86 79 79 94 103 104 104 105 108 109 110 112 114 115 113 110 113 110 108 104 102 105 107 108 100
334 331 329 325 323 328 352 44 75 86 86 84 85 85 92 93 85 87 80 78 80 89 97 97 100 105 106 108 108 108 108 105 105 102 98 96 95 97 102 105 102 100
329 329 326 327 322 325 348 57 84 90 89 84 59 75 89 86 89 94 84 81 81 84 89 90 94 103 106 107 108 107 105 101 101 99 96 93 91 87 88 93 95 90
325 327 324 325 323 318 334 68 93 99 100 106 87 63 56 73 75 73 83 80 80 89 93 93 93 98 104 106 107 107 104 98 100 98 99 98 93 89 84 80 79 80
319 324 322 324 325 318 321 35 111 113 110 116 94 81 79 70 81 69 62 72 78 77 87 88 87 95 100 105 107 108 104 103 103 101 98 99 95 93 88 81 76 79
314 319 319 322 326 321 316 339 95 107 117 124 104 104 88 76 83 79 69 67 76 82 72 90 88 88 90 93 96 100 103 111 112 108 105 105 105 95 90 84 82 83
310 316 317 317 321 316 313 313 122 128 125 110 98 98 100 103 104 97 88 72 64 73 74 76 77 78 82 84 84 83 83 72 113 115 109 105 101 94 79 80 77 77
309 313 313 315 315 313 309 309 310 111 115 117 112 102 109 116 106 103 99 88 82 79 78 76 77 72 75 81 83 81 83 81 104 111 110 107 102 99 97 79 70 69